User: anonymous   Login
Location: Unspecified
(0.0000°N, 0.0000°E)
Time: 03:22:19
(UTC+00:00)
Language:

TBA - TO BE ASSIGNED - Orbit

View from above orbital plane
View from above orbital plane
View from above satellite
View from above satellite

Ground track
Ground track

The orbit is defined by the following mean orbital elements,

1 68079U          26145.50062269 +.00000000 +00000-0 +84582-3 0 00001
2 68079  53.1588 181.3468 0001169  81.8224 278.2911 15.34395678    06
Epoch (UTC): 25 May 2026 12:00:53
Eccentricity: 0.0001169
inclination: 53.1588°
perigee height: 462 km
apogee height: 464 km
right ascension of ascending node: 181.3468°
argument of perigee: 81.8224°
revolutions per day: 15.34395678
mean anomaly at epoch: 278.2911°

The dashed part of the orbit path shows where the satellite is in the earth's shadow,  

DLR